Skip Page Navigation
NASA JPL Caltech
NASA Logo - Jet Propulsion Laboratory + View the NASA Portal
+ Center for Near-Earth Object Studies
JPL Home Earth Solar System Stars & Galaxies Technology
JPL Solar System Dynamics
BODIES ORBITS EPHEMERIDES TOOLS PHYSICAL DATA DISCOVERY FAQ SITE MAP
IMPORTANT: The SSD Announcement email list is now available. Major changes are coming in the near future, including possible hostname and/or URL changes. To be notified of such changes, subscribe to this email list.

Please visit this page for more details.


JPL Small-Body Database Browser
Search: [ help ]  
434555 (2005 TK116)
Classification: Main-belt Asteroid          SPK-ID: 2434555
Ephemeris | Orbit Diagram | Orbital Elements | Mission Design | Physical Parameters | Discovery Circumstances ]

[ show orbit diagram ]
Orbital Elements at Epoch 2458600.5 (2019-Apr-27.0) TDB
Reference: JPL 10 (heliocentric ecliptic J2000)
 Element Value Uncertainty (1-sigma)   Units 
e .2158923063815272 1.1188e-07  
a 2.348543223285677 3.0818e-08 au
q 1.841510810173826 2.5281e-07 au
i 1.510865590162752 9.604e-06 deg
node 294.1723132010251 0.00080316 deg
peri 32.41605316095396 0.00080607 deg
M 306.5234665912517 6.9683e-05 deg
tp 2458795.779659380147
(2019-Nov-08.27965938)
0.00025752 TDB
period 1314.607976540086
3.60
2.5876e-05
7.084e-08
d
yr
n .2738458965900111 5.3903e-09 deg/d
Q 2.855575636397528 3.7472e-08 au
  Orbit Determination Parameters
   # obs. used (total)      75  
   data-arc span      4078 days (11.16 yr)  
   first obs. used      2005-09-27  
   last obs. used      2016-11-26  
   planetary ephem.      DE431  
   SB-pert. ephem.      SB431-N16  
   condition code      0  
   norm. resid. RMS      .62558  
   source      ORB  
   producer      Otto Matic  
   solution date      2017-Apr-09 13:44:34  

Additional Information
 Earth MOID = .829152 au 
 Jupiter MOID = 2.48458 au 
 T_jup = 3.527 
[ show covariance matrix ]

Ephemeris | Orbit Diagram | Orbital Elements | Mission Design | Physical Parameters | Discovery Circumstances ]

Physical Parameter Table
Parameter Symbol Value Units Sigma Reference Notes
absolute magnitude H 18.0   n/a MPO368899  

434555 (2005 TK116)          Discovered 2005-Oct-07 by Spacewatch at Kitt Peak
Reference: Last Updated: 2015-06-04
Ephemeris | Orbit Diagram | Orbital Elements | Mission Design | Physical Parameters | Discovery Circumstances ]
ABOUT SSD CREDITS/AWARDS PRIVACY/COPYRIGHT GLOSSARY LINKS
FirstGov
(server date/time)  
NASA Home Page
Site Manager:   Ryan S. Park
Webmaster  Alan B. Chamberlin